"2010-01-15 00:00:00",1592920,4.096,182.9,5.833,1.038,4.97,101.224,2.422,3.56,49.88,0,109.7,13.55,3.18,144.9
"2010-01-15 00:00:30",1592921,4.325,181.9,5.671,1.187,4.562,101.2251,2.425,3.57,50.1,0,109.7,13.55,3.19,143.9
"2010-01-15 00:01:00",1592922,5.215,190,5.385,1.104,6.909,101.2274,2.431,3.742,50.36,0,109.7,13.55,3.19,152.0
"2010-01-15 00:01:30",1592923,4.286,185.2,5.823,1.143,5.29,101.2245,2.424,3.585,50.07,0,109.7,13.55,3.18,147.2
"2010-01-15 00:02:00",1592924,5.124,190.8,5.677,1.154,7.192,101.2254,2.426,3.751,50.14,0,109.7,13.55,3.19,152.8
"2010-01-15 00:02:30",1592925,4.942,189.9,5.869,1.188,6.927,101.2257,2.427,3.672,50.02,0,109.7,13.55,3.19,151.9
"2010-01-15 00:03:00",1592926,3.639,183.2,4.149,0.868,4.7,101.2265,2.429,3.622,49.95,0,109.7,13.55,3.19,145.2
"2010-01-15 00:03:30",1592927,3.966,185.4,5.735,1.096,4.639,101.2226,2.419,3.594,49.9,0,109.7,13.55,3.18,147.4
"2010-01-15 00:04:00",1592928,5.115,190.2,6.006,1.167,6.731,101.2245,2.424,3.722,50.07,0,109.7,13.55,3.18,152.2
"2010-01-15 00:04:30",1592929,3.691,183.9,5.004,0.871,4.409,101.2231,2.42,3.61,50.08,0,109.7,13.55,3.18,145.9
"2010-01-15 00:05:00",1592930,4.289,186.7,6.267,1.204,5.457,101.2246,2.424,3.663,50.15,0,109.7,13.56,3.18,148.7
"2010-01-15 00:05:30",1592931,4.696,189.8,5.99,1.227,6.85,101.2257,2.427,3.741,50.11,0,109.7,13.56,3.19,151.8
"2010-01-15 00:06:00",1592932,3.695,184.3,4.994,1.002,4.781,101.2254,2.426,3.576,49.92,0,109.7,13.56,3.19,146.3
"2010-01-15 00:06:30",1592933,4.112,188,6.831,1.229,5.592,101.2269,2.43,3.532,50.03,0,109.7,13.55,3.19,150.0
"2010-01-15 00:07:00",1592934,4.432,193.5,6.304,1.234,6.939,101.2263,2.428,3.765,50.24,0,109.7,13.56,3.19,155.5
"2010-01-15 00:07:30",1592935,4.335,192.5,6.446,1.232,6.514,101.2294,2.436,3.637,49.97,0,109.7,13.56,3.20,154.5
"2010-01-15 00:08:00",1592936,3.374,185.8,4.771,0.862,4.516,101.2306,2.439,3.633,50.01,0,109.7,13.56,3.20,147.8
"2010-01-15 00:08:30",1592937,4.69,194,5.422,1.108,7.156,101.2309,2.44,3.692,50.19,0,109.7,13.56,3.20,156.0
"2010-01-15 00:09:00",1592938,4.113,190.2,6.321,1.236,6.2,101.2323,2.444,3.656,50.24,0,109.7,13.56,3.20,152.2
"2010-01-15 00:09:30",1592939,3.015,182.5,0.991,0.069,4.012,101.2326,2.444,3.568,50.34,0,109.7,13.58,3.20,144.5
"2010-01-15 00:10:00",1592940,4.89,188.4,5.855,1.097,7.09,101.2334,2.446,3.773,50.8,0,109.7,13.55,3.21,150.4
"2010-01-15 00:10:30",1592941,4.471,184.5,6.45,1.265,6.348,101.2329,2.445,3.717,51.09,0,109.7,13.55,3.21,146.5
"2010-01-15 00:11:00",1592942,4.079,182.8,5.99,1.193,5.279,101.2369,2.455,3.598,51.25,0,109.7,13.55,3.22,144.8
"2010-01-15 00:11:30",1592943,4.369,187.4,6.852,1.209,6.021,101.238,2.458,3.672,51.37,0,109.7,13.55,3.22,149.4
"2010-01-15 00:12:00",1592944,4.42,187.9,6.517,1.225,5.847,101.2372,2.456,3.667,51.25,0,109.7,13.55,3.22,149.9
"2010-01-15 00:12:30",1592945,3.564,185,5.707,1.07,5.044,101.2377,2.457,3.638,51.12,0,109.7,13.55,3.22,147.0
"2010-01-15 00:13:00",1592946,4.344,189.8,6.362,1.275,7.022,101.2392,2.461,3.747,51.23,0,109.7,13.55,3.22,151.8
"2010-01-15 00:13:30",1592947,4.716,191.8,6.152,1.1,7.142,101.2386,2.46,3.684,51.22,0,109.7,13.55,3.22,153.8
"2010-01-15 00:14:00",1592948,4.422,191.4,6.079,1.173,6.67,101.2412,2.466,3.669,51.12,0,109.7,13.55,3.23,153.4
"2010-01-15 00:14:30",1592949,3.244,188.7,5.326,1.051,5.003,101.2426,2.47,3.641,51.05,0,109.7,13.56,3.23,150.7
"2010-01-15 00:15:00",1592950,3.747,188.8,5.692,1.226,5.378,101.2438,2.473,3.579,50.95,0,109.7,13.56,3.23,150.8
"2010-01-15 00:15:30",1592951,3.271,181.8,4.724,0.926,4.281,101.2466,2.48,3.539,51.04,0,109.7,13.56,3.24,143.8
"2010-01-15 00:16:00",1592952,4.477,187.9,6.225,1.224,7.341,101.2472,2.482,3.73,51.49,0,109.7,13.56,3.24,149.9
"2010-01-15 00:16:30",1592953,4.399,186.7,6.486,1.219,7.114,101.2463,2.479,3.754,51.69,0,109.7,13.56,3.24,148.7
"2010-01-15 00:17:00",1592954,4.777,187.6,5.666,1.098,7.39,101.2483,2.484,3.728,51.78,0,109.7,13.56,3.25,149.6
"2010-01-15 00:17:30",1592955,4.237,185.2,6.185,1.23,5.779,101.2458,2.478,3.631,51.74,0,109.7,13.56,3.24,147.2
"2010-01-15 00:18:00",1592956,2.996,179.6,0.478,0.02,3.189,101.2407,2.465,3.495,51.74,0,109.7,13.59,3.23,141.6
"2010-01-15 00:18:30",1592957,2.926,181,0.264,0.036,3.418,101.2351,2.451,3.523,51.8,0,109.7,13.59,3.21,143.0
"2010-01-15 00:19:00",1592958,4.618,190.2,5.789,1.217,7.016,101.23,2.438,3.73,52.05,0,109.7,13.56,3.20,152.2
"2010-01-15 00:19:30",1592959,4.777,189.9,6.026,1.158,7.584,101.2232,2.42,3.688,52.16,0,109.7,13.56,3.18,151.9
"2010-01-15 00:20:00",1592960,4.236,188.4,6.295,1.26,6.579,101.2189,2.409,3.727,52.43,0,109.7,13.56,3.17,150.4
"2010-01-15 00:20:30",1592961,4.695,191.4,5.398,1.101,7.126,101.2164,2.403,3.688,52.55,0,109.7,13.56,3.16,153.4
"2010-01-15 00:21:00",1592962,3.561,183.8,4.84,0.988,3.903,101.2178,2.407,3.467,52.61,0,109.7,13.56,3.17,145.8
"2010-01-15 00:21:30",1592963,3.028,182,0.175,0.037,3.074,101.2173,2.405,3.472,52.88,0,109.7,13.59,3.17,144.0
"2010-01-15 00:22:00",1592964,4.295,188,6.465,1.245,6.05,101.2193,2.41,3.682,53.2,0,109.7,13.56,3.17,150.0
"2010-01-15 00:22:30",1592965,4.762,190.7,6.264,1.129,7.343,101.2175,2.406,3.684,53.2,0,109.7,13.57,3.17,152.7
"2010-01-15 00:23:00",1592966,5.037,192.7,5.604,1.018,7.844,101.2198,2.412,3.707,53.23,0,109.7,13.57,3.17,154.7
"2010-01-15 00:23:30",1592967,4.585,189.6,6.283,1.193,6.988,101.2201,2.412,3.712,53.28,0,109.7,13.57,3.17,151.6
"2010-01-15 00:24:00",1592968,3.531,185.1,5.453,1.086,4.452,101.221,2.415,3.517,53.18,0,109.7,13.56,3.18,147.1
"2010-01-15 00:24:30",1592969,2.905,181.8,0.322,0.035,3.035,101.2215,2.416,3.458,53.18,0,109.7,13.6,3.18,143.8
"2010-01-15 00:25:00",1592970,3.815,186.3,6.168,1.236,4.995,101.2218,2.417,3.535,53.24,0,109.7,13.57,3.18,148.3
"2010-01-15 00:25:30",1592971,4.573,190.4,6.052,1.175,7.391,101.2215,2.416,3.682,53.14,0,109.7,13.57,3.18,152.4
"2010-01-15 00:26:00",1592972,4.598,190.5,5.519,1.071,7.57,101.2221,2.418,3.609,53.07,0,109.7,13.56,3.18,152.5
"2010-01-15 00:26:30",1592973,4.602,190.9,5.421,0.997,7.863,101.2224,2.418,3.669,53.23,0,109.7,13.56,3.18,152.9
"2010-01-15 00:27:00",1592974,3.762,186.8,6.546,1.252,5.807,101.2224,2.418,3.606,53.16,0,109.7,13.56,3.18,148.8
"2010-01-15 00:27:30",1592975,2.546,178.8,0.766,0.032,3.098,101.2224,2.418,3.441,52.88,0,109.7,13.59,3.18,140.8
"2010-01-15 00:28:00",1592976,3.174,180.7,5.186,1.028,4.013,101.2224,2.418,3.413,52.94,0,109.7,13.56,3.18,142.7
"2010-01-15 00:28:30",1592977,3.96,184.6,6.322,1.27,6.249,101.2199,2.412,3.645,53.21,0,109.7,13.56,3.17,146.6
"2010-01-15 00:29:00",1592978,4.118,185.1,5.905,1.252,6.98,101.2131,2.394,3.71,53.38,0,109.7,13.56,3.15,147.1
"2010-01-15 00:29:30",1592979,4.782,187.2,5.373,1.008,7.646,101.2001,2.361,3.654,53.37,0,109.7,13.56,3.12,149.2
"2010-01-15 00:30:00",1592980,4.676,187.9,5.351,1.033,7.33,101.1916,2.34,3.604,53.32,0,109.7,13.56,3.10,149.9
"2010-01-15 00:30:30",1592981,3.214,178.9,3.943,0.917,3.372,101.189,2.333,3.418,53.28,0,109.7,13.56,3.09,140.9
"2010-01-15 00:31:00",1592982,3.408,180.7,5.576,1.111,3.997,101.1885,2.332,3.408,53.41,0,109.7,13.57,3.09,142.7
"2010-01-15 00:31:30",1592983,3.966,181.9,6.326,1.293,5.445,101.1885,2.332,3.533,53.7,0,109.7,13.57,3.09,143.9
"2010-01-15 00:32:00",1592984,4.341,184.2,6.609,1.255,6.046,101.1885,2.332,3.535,54.11,0,109.7,13.57,3.09,146.2
"2010-01-15 00:32:30",1592985,4.792,185.9,6.035,1.134,7.655,101.1885,2.332,3.654,54.52,0,109.7,13.57,3.09,147.9
"2010-01-15 00:33:00",1592986,4.911,185.9,5.852,1.099,7.219,101.1885,2.332,3.625,54.68,0,109.7,13.57,3.09,147.9
"2010-01-15 00:33:30",1592987,3.937,182.2,7.1,1.209,5.469,101.1885,2.332,3.538,54.74,0,109.7,13.57,3.09,144.2
"2010-01-15 00:34:00",1592988,3.561,179.9,5.365,0.932,4.022,101.1885,2.332,3.532,54.96,0,109.7,13.57,3.09,141.9
"2010-01-15 00:34:30",1592989,3.858,181.1,5.81,1.151,4.117,101.1885,2.332,3.443,55.15,0,109.7,13.57,3.09,143.1
"2010-01-15 00:35:00",1592990,4.874,186.9,6.245,1.213,6.656,101.1885,2.332,3.544,55.53,0,109.7,13.57,3.09,148.9
"2010-01-15 00:35:30",1592991,5.048,188.2,5.424,1.094,7.018,101.1885,2.332,3.584,55.78,0,109.7,13.57,3.09,150.2
"2010-01-15 00:36:00",1592992,4.924,184.3,6.041,1.181,6.647,101.1885,2.332,3.59,55.99,0,109.7,13.57,3.09,146.3
"2010-01-15 00:36:30",1592993,4.528,180.8,5.6,1.144,4.882,101.1862,2.326,3.453,55.95,0,109.7,13.57,3.09,142.8
"2010-01-15 00:37:00",1592994,3.887,177.3,2.518,0.639,3.273,101.1819,2.315,3.478,56.1,0,109.7,13.57,3.08,139.3
"2010-01-15 00:37:30",1592995,4.62,183.3,6.479,1.263,5.251,101.176,2.3,3.485,56.24,0,109.6,13.57,3.06,145.3
"2010-01-15 00:38:00",1592996,3.524,179,4.089,0.766,4.098,101.1712,2.288,3.53,56.2,0,109.7,13.57,3.05,141.0
"2010-01-15 00:38:30",1592997,4.762,185.5,6.049,1.146,6.945,101.1698,2.284,3.552,56.09,0,109.7,13.57,3.04,147.5
"2010-01-15 00:39:00",1592998,5.059,186.8,5.692,1.127,7.294,101.1681,2.28,3.589,56.22,0,109.7,13.57,3.04,148.8
"2010-01-15 00:39:30",1592999,4.726,184.5,6.382,1.256,6.817,101.1653,2.272,3.562,56.34,0,109.7,13.57,3.03,146.5
"2010-01-15 00:40:00",1593000,4.861,182.6,6.915,1.24,5.845,101.1579,2.254,3.387,56.22,0,109.6,13.57,3.01,144.6
"2010-01-15 00:40:30",1593001,4.378,180.2,6.513,1.224,5.339,101.1556,2.248,3.465,56.48,0,109.7,13.57,3.01,142.2
"2010-01-15 00:41:00",1593002,3.972,177.6,4.857,0.967,4.458,101.1545,2.245,3.413,56.49,0,109.7,13.57,3.00,139.6
"2010-01-15 00:41:30",1593003,4.655,181,6.448,1.182,5.545,101.1556,2.248,3.473,56.52,0,109.6,13.57,3.01,143.0
"2010-01-15 00:42:00",1593004,5.037,183.6,6.032,1.229,6.659,101.1562,2.249,3.552,56.64,0,109.7,13.57,3.01,145.6
"2010-01-15 00:42:30",1593005,5.38,186.7,5.486,1.098,7.43,101.1548,2.246,3.501,56.6,0,109.7,13.57,3.01,148.7
"2010-01-15 00:43:00",1593006,4.727,183.8,6.404,1.229,5.97,101.1551,2.246,3.559,56.68,0,109.7,13.57,3.01,145.8
"2010-01-15 00:43:30",1593007,4.667,183.2,6.286,1.176,5.557,101.1545,2.245,3.381,56.63,0,109.7,13.57,3.00,145.2
"2010-01-15 00:44:00",1593008,5.229,185.8,6.281,1.212,6.364,101.1551,2.246,3.494,56.89,0,109.7,13.57,3.01,147.8
"2010-01-15 00:44:30",1593009,4.17,181.2,4.734,0.913,4.412,101.1545,2.245,3.432,56.83,0,109.7,13.57,3.00,143.2
"2010-01-15 00:45:00",1593010,5.753,189.4,5.453,1.035,7.138,101.1545,2.245,3.462,56.51,0,109.6,13.57,3.00,151.4
"2010-01-15 00:45:30",1593011,5.601,189.4,5.765,1.185,7.12,101.1545,2.245,3.539,56.11,0,109.6,13.57,3.00,151.4
"2010-01-15 00:46:00",1593012,5.855,192.5,3.996,1.068,7.664,101.1548,2.246,3.608,55.94,0,109.7,13.57,3.01,154.5
"2010-01-15 00:46:30",1593013,5.348,188.9,6.492,1.233,6.115,101.1551,2.246,3.377,55.59,0,109.6,13.57,3.01,150.9
"2010-01-15 00:47:00",1593014,5.54,190.3,6.14,1.167,6.63,101.1548,2.246,3.507,55.46,0,109.6,13.57,3.01,152.3
"2010-01-15 00:47:30",1593015,4.393,183.8,4.271,0.866,4.146,101.1551,2.246,3.4,55.39,0,109.7,13.57,3.01,145.8
"2010-01-15 00:48:00",1593016,5.13,188.5,6.222,1.213,5.877,101.1559,2.249,3.42,55.29,0,109.6,13.57,3.01,150.5
"2010-01-15 00:48:30",1593017,5.657,191.9,5.654,1.063,7.47,101.1559,2.249,3.505,55.17,0,109.7,13.57,3.01,153.9
"2010-01-15 00:49:00",1593018,5.695,193.2,4.874,1.01,7.931,101.1559,2.249,3.583,55.02,0,109.7,13.58,3.01,155.2
"2010-01-15 00:49:30",1593019,5.403,192.1,5.558,1.098,7.395,101.1568,2.251,3.526,54.61,0,109.6,13.58,3.01,154.1
"2010-01-15 00:50:00",1593020,4.754,187.8,6.391,1.188,5.571,101.1576,2.253,3.49,54.15,0,109.6,13.58,3.01,149.8
"2010-01-15 00:50:30",1593021,4.02,185.5,3.736,0.763,3.994,101.1574,2.252,3.389,53.39,0,109.6,13.58,3.01,147.5
"2010-01-15 00:51:00",1593022,5.022,190.8,6.668,1.251,6.126,101.1579,2.254,3.383,52.91,0,109.6,13.58,3.01,152.8
"2010-01-15 00:51:30",1593023,5.329,192.2,6.603,1.184,6.391,101.1597,2.258,3.48,52.7,0,109.6,13.58,3.02,154.2
"2010-01-15 00:52:00",1593024,5.869,196.3,4.442,0.895,8.37,101.1582,2.255,3.505,52.44,0,109.6,13.58,3.01,158.3
"2010-01-15 00:52:30",1593025,5.928,193.1,5.279,1.161,7.591,101.1611,2.262,3.552,52.56,0,109.6,13.58,3.02,155.1
"2010-01-15 00:53:00",1593026,5.716,191.6,6.059,1.206,6.815,101.1619,2.264,3.413,52.94,0,109.6,13.58,3.02,153.6
"2010-01-15 00:53:30",1593027,4.549,185.9,4.782,0.915,4.485,101.1637,2.268,3.4,53.2,0,109.6,13.58,3.03,147.9
"2010-01-15 00:54:00",1593028,4.735,185.2,4.78,1.026,4.06,101.1617,2.263,3.278,52.71,0,109.6,13.58,3.02,147.2
"2010-01-15 00:54:30",1593029,5.464,188.8,6.726,1.261,5.911,101.1639,2.269,3.462,52.95,0,109.6,13.58,3.03,150.8
"2010-01-15 00:55:00",1593030,6.16,193,5.743,1.119,7.876,101.1657,2.273,3.576,53.35,0,109.7,13.58,3.03,155.0
"2010-01-15 00:55:30",1593031,6.593,194.4,4.87,0.865,8.2,101.1639,2.269,3.528,53.19,0,109.6,13.58,3.03,156.4
"2010-01-15 00:56:00",1593032,6.314,192,6.027,1.112,7.252,101.1642,2.27,3.502,52.95,0,109.6,13.58,3.03,154.0
"2010-01-15 00:56:30",1593033,5.612,188.6,6.053,1.182,5.535,101.1642,2.27,3.415,53.18,0,109.7,13.58,3.03,150.6
"2010-01-15 00:57:00",1593034,4.898,184.8,3.907,0.641,4.282,101.1657,2.273,3.41,53.69,0,109.6,13.58,3.03,146.8
"2010-01-15 00:57:30",1593035,6.127,190.4,6.225,1.191,6.514,101.1688,2.282,3.463,54.03,0,109.7,13.58,3.04,152.4
"2010-01-15 00:58:00",1593036,6.14,190.8,6.261,1.19,7.02,101.1654,2.273,3.463,54.1,0,109.7,13.58,3.03,152.8
"2010-01-15 00:58:30",1593037,6.234,192.1,5.418,1.079,7.798,101.1682,2.28,3.569,54.34,0,109.7,13.57,3.04,154.1
"2010-01-15 00:59:00",1593038,6.306,191.3,5.427,1.077,7.578,101.1682,2.28,3.551,54.45,0,109.6,13.57,3.04,153.3
"2010-01-15 00:59:30",1593039,6.007,189.6,6.452,1.202,6.668,101.1685,2.281,3.459,54.47,0,109.6,13.57,3.04,151.6
"2010-01-15 01:00:00",1593040,4.8,182.6,2.297,0.627,3.844,101.168,2.279,3.415,54.5,0,109.6,13.57,3.04,144.6
"2010-01-15 01:00:30",1593041,6.622,192.3,5.29,1.063,7.2,101.1708,2.287,3.536,54.51,0,109.6,13.57,3.05,154.3
"2010-01-15 01:01:00",1593042,6.042,187.7,6.168,1.233,6.458,101.1748,2.297,3.502,54.2,0,109.6,13.57,3.06,149.7
"2010-01-15 01:01:30",1593043,6.673,191,5.149,1.054,7.599,101.1858,2.325,3.542,53.94,0,109.7,13.57,3.09,153.0
"2010-01-15 01:02:00",1593044,6.343,188.8,5.87,1.19,7.264,101.1867,2.327,3.544,53.59,0,109.7,13.57,3.09,150.8
"2010-01-15 01:02:30",1593045,5.636,186.7,6.088,1.2,5.767,101.1937,2.345,3.489,53.33,0,109.7,13.57,3.11,148.7
"2010-01-15 01:03:00",1593046,6.271,190.4,5.81,1.152,6.874,101.2079,2.381,3.573,53.06,0,109.7,13.57,3.14,152.4
"2010-01-15 01:03:30",1593047,5.917,188,6.432,1.258,6.002,101.2059,2.376,3.546,52.41,0,109.7,13.57,3.14,150.0
"2010-01-15 01:04:00",1593048,5.727,187.7,6.336,1.257,6.147,101.2062,2.377,3.559,51.72,0,109.7,13.58,3.14,149.7
"2010-01-15 01:04:30",1593049,6.383,192,5.32,1.049,7.347,101.2085,2.383,3.577,51.31,0,109.6,13.58,3.14,154.0
"2010-01-15 01:05:00",1593050,6.35,191,5.772,1.086,7.568,101.2074,2.38,3.561,50.8,0,109.7,13.58,3.14,153.0
"2010-01-15 01:05:30",1593051,6.192,191,6.317,1.058,7.081,101.2082,2.382,3.583,50.34,0,109.7,13.58,3.14,153.0
"2010-01-15 01:06:00",1593052,5.723,189.2,6.324,1.245,6.152,101.2059,2.376,3.576,50.21,0,109.7,13.58,3.14,151.2
"2010-01-15 01:06:30",1593053,5.876,189.9,6.418,1.229,6.42,101.2088,2.384,3.594,50.45,0,109.6,13.58,3.14,151.9
"2010-01-15 01:07:00",1593054,6.811,193.7,4.05,0.688,7.686,101.2079,2.381,3.506,50.38,0,109.6,13.58,3.14,155.7
"2010-01-15 01:07:30",1593055,5.303,186.8,5.935,1.062,5.183,101.2062,2.377,3.521,50.58,0,109.7,13.58,3.14,148.8
"2010-01-15 01:08:00",1593056,6.312,192.5,5.504,1.141,7.54,101.2091,2.384,3.602,51.13,0,109.7,13.58,3.14,154.5
"2010-01-15 01:08:30",1593057,6.376,191.2,5.549,1.139,7.155,101.2107,2.389,3.599,50.62,0,109.6,13.58,3.15,153.2
"2010-01-15 01:09:00",1593058,6.488,190.6,5.764,1.104,7.103,101.2241,2.423,3.661,49.57,0,109.7,13.58,3.18,152.6
"2010-01-15 01:09:30",1593059,6.116,189.5,6.374,1.214,6.187,101.234,2.448,3.537,48.59,0,109.7,13.58,3.21,151.5
"2010-01-15 01:10:00",1593060,5.243,185.3,5.494,1.043,4.79,101.2402,2.464,3.595,48.3,0,109.7,13.58,3.22,147.3
"2010-01-15 01:10:30",1593061,5.703,186.4,6.269,1.214,5.544,101.243,2.471,3.505,47.93,0,109.7,13.58,3.23,148.4
"2010-01-15 01:11:00",1593062,6.258,189.7,5.603,1.147,7.41,101.2453,2.477,3.6,47.63,0,109.7,13.58,3.24,151.7
"2010-01-15 01:11:30",1593063,6.061,188.2,5.949,1.222,7.016,101.2442,2.474,3.689,47.62,0,109.7,13.58,3.23,150.2
"2010-01-15 01:12:00",1593064,6.305,190.9,5.298,1.115,7.207,101.245,2.476,3.676,47.89,0,109.7,13.58,3.24,152.9
"2010-01-15 01:12:30",1593065,5.321,183,5.67,1.139,4.847,101.2436,2.472,3.614,47.45,0,109.7,13.58,3.23,145.0
"2010-01-15 01:13:00",1593066,5.697,185.3,6.249,1.16,5.548,101.2439,2.473,3.628,47.03,0,109.7,13.58,3.23,147.3
"2010-01-15 01:13:30",1593067,5.045,182.2,5.401,0.976,4.926,101.2465,2.48,3.588,46.78,0,109.7,13.58,3.24,144.2
"2010-01-15 01:14:00",1593068,6.175,187.8,6.376,1.162,7.007,101.2436,2.472,3.613,46.5,0,109.7,13.58,3.23,149.8
"2010-01-15 01:14:30",1593069,6.565,188.9,5.711,1.021,7.422,101.2453,2.477,3.717,46.56,0,109.7,13.59,3.24,150.9
"2010-01-15 01:15:00",1593070,6.576,191,4.282,1.017,8.18,101.2473,2.482,3.741,46.57,0,109.7,13.58,3.24,153.0
"2010-01-15 01:15:30",1593071,6.453,189,6.036,1.136,7.405,101.2481,2.484,3.764,46.56,0,109.6,13.58,3.24,151.0
"2010-01-15 01:16:00",1593072,5.164,182.6,4.954,1.027,4.59,101.2555,2.503,3.589,46.34,0,109.7,13.58,3.26,144.6
"2010-01-15 01:16:30",1593073,5.65,185.6,5.486,1.182,5.313,101.2685,2.536,3.557,46.25,0,109.7,13.58,3.30,147.6
"2010-01-15 01:17:00",1593074,4.667,182.2,0.41,0.046,3.732,101.275,2.553,3.592,46.74,0,109.7,13.61,3.31,144.2
"2010-01-15 01:17:30",1593075,6.52,194.2,5.152,0.998,8.41,101.2796,2.564,3.797,48.02,0,109.7,13.59,3.33,156.2
"2010-01-15 01:18:00",1593076,6.575,195.4,5.041,0.92,8.66,101.2793,2.563,3.811,49.3,0,109.7,13.59,3.32,157.4
"2010-01-15 01:18:30",1593077,6.618,196.5,4.559,0.855,8.3,101.2802,2.566,3.761,50.34,0,109.7,13.58,3.33,158.5
"2010-01-15 01:19:00",1593078,5.411,192.5,6.044,1.201,6.148,101.2793,2.563,3.725,50.84,0,109.7,13.58,3.32,154.5
"2010-01-15 01:19:30",1593079,5.566,192.9,6.379,1.2,5.638,101.2773,2.558,3.603,50.97,0,109.7,13.58,3.32,154.9
"2010-01-15 01:20:00",1593080,4.746,187.6,3.968,0.74,4.329,101.2784,2.561,3.549,51.27,0,109.7,13.58,3.32,149.6
"2010-01-15 01:20:30",1593081,6.161,196.8,5.371,1.142,7.561,101.2787,2.562,3.787,51.62,0,109.7,13.58,3.32,158.8
"2010-01-15 01:21:00",1593082,6.831,199.5,3.337,0.656,9.17,101.2802,2.566,3.872,51.59,0,109.7,13.59,3.33,161.5
"2010-01-15 01:21:30",1593083,6.797,199.2,3.98,0.641,8.95,101.2802,2.566,3.86,51.5,0,109.7,13.58,3.33,161.2
"2010-01-15 01:22:00",1593084,5.728,193,6.239,1.181,5.833,101.2784,2.561,3.635,51.11,0,109.7,13.58,3.32,155.0
"2010-01-15 01:22:30",1593085,5.407,191.9,5.85,1.156,5.513,101.2799,2.565,3.675,51.03,0,109.7,13.58,3.33,153.9
"2010-01-15 01:23:00",1593086,5.388,191.8,5.801,1.127,5.515,101.2802,2.566,3.701,51.42,0,109.7,13.58,3.33,153.8
"2010-01-15 01:23:30",1593087,6.212,194.8,6.424,1.259,6.827,101.2793,2.563,3.762,51.7,0,109.7,13.59,3.32,156.8
"2010-01-15 01:24:00",1593088,6.921,199.9,4.074,0.867,8.77,101.2796,2.564,3.863,52.47,0,109.7,13.59,3.33,161.9
"2010-01-15 01:24:30",1593089,6.958,199.3,4.35,0.543,9.18,101.2796,2.564,3.854,52.6,0,109.7,13.59,3.33,161.3
"2010-01-15 01:25:00",1593090,6.111,196.3,5.956,1.166,8.03,101.2804,2.566,3.877,52.26,0,109.7,13.58,3.33,158.3
"2010-01-15 01:25:30",1593091,5.221,191.6,5.748,1.145,5.191,101.2787,2.562,3.562,51.58,0,109.7,13.58,3.32,153.6
"2010-01-15 01:26:00",1593092,4.987,190.2,5.333,1.055,4.759,101.2784,2.561,3.588,51.26,0,109.7,13.58,3.32,152.2
"2010-01-15 01:26:30",1593093,6.088,196.3,5.969,1.105,7.27,101.2807,2.567,3.734,51.26,0,109.7,13.58,3.33,158.3
"2010-01-15 01:27:00",1593094,6.067,196.3,5.934,1.136,7.768,101.2796,2.564,3.817,51.56,0,109.7,13.59,3.33,158.3
"2010-01-15 01:27:30",1593095,6.691,199.4,3.422,0.654,9.03,101.2804,2.566,3.872,51.88,0,109.7,13.59,3.33,161.4
"2010-01-15 01:28:00",1593096,6.186,198.2,5.05,1.091,7.781,101.2784,2.561,3.779,51.97,0,109.7,13.58,3.32,160.2
"2010-01-15 01:28:30",1593097,5.887,196,6.364,1.206,6.625,101.2796,2.564,3.6,51.95,0,109.7,13.58,3.33,158.0
"2010-01-15 01:29:00",1593098,4.571,189.4,3.684,0.791,4.239,101.2787,2.562,3.67,52.34,0,109.7,13.58,3.32,151.4
"2010-01-15 01:29:30",1593099,6.117,197.8,5.585,0.974,7.19,101.2793,2.563,3.713,51.84,0,109.7,13.58,3.32,159.8
"2010-01-15 01:30:00",1593100,5.544,193.5,6.343,1.2,6.431,101.2787,2.562,3.717,52.1,0,109.7,13.59,3.32,155.5
"2010-01-15 01:30:30",1593101,6.79,201.3,3.46,0.684,8.72,101.2793,2.563,3.884,53.18,0,109.7,13.58,3.32,163.3
"2010-01-15 01:31:00",1593102,6.356,199.2,5.671,1.073,7.504,101.2787,2.562,3.741,53.4,0,109.7,13.58,3.32,161.2
"2010-01-15 01:31:30",1593103,6.404,200.3,5.397,1.037,7.576,101.2799,2.565,3.751,53.54,0,109.7,13.57,3.33,162.3
"2010-01-15 01:32:00",1593104,4.644,191.1,2.293,0.629,3.883,101.277,2.558,3.66,53.58,0,109.6,13.57,3.32,153.1
"2010-01-15 01:32:30",1593105,6.347,199.9,5.68,1.116,7.047,101.2799,2.565,3.724,53.72,0,109.7,13.57,3.33,161.9
"2010-01-15 01:33:00",1593106,5.657,196.6,6.172,1.235,6.335,101.2781,2.561,3.741,53.67,0,109.7,13.57,3.32,158.6
"2010-01-15 01:33:30",1593107,6.452,199.1,5.42,1.054,7.64,101.2767,2.557,3.818,53.78,0,109.6,13.57,3.32,161.1
"2010-01-15 01:34:00",1593108,6.283,199.1,6.04,1.072,7.474,101.279,2.563,3.788,53.96,0,109.7,13.57,3.32,161.1
"2010-01-15 01:34:30",1593109,6.351,198.1,5.705,1.087,7.261,101.2765,2.556,3.742,54.17,0,109.7,13.57,3.32,160.1
"2010-01-15 01:35:00",1593110,5.85,197,6.314,1.243,6.855,101.2711,2.542,3.774,54.11,0,109.7,13.57,3.30,159.0
"2010-01-15 01:35:30",1593111,4.996,192.3,5.133,1.007,4.918,101.2651,2.527,3.635,53.92,0,109.7,13.57,3.29,154.3
"2010-01-15 01:36:00",1593112,6.354,199.1,5.614,1.029,7.66,101.2629,2.522,3.785,53.92,0,109.6,13.58,3.28,161.1
"2010-01-15 01:36:30",1593113,5.869,196.1,6.136,1.188,6.873,101.2569,2.506,3.687,53.63,0,109.7,13.58,3.27,158.1
"2010-01-15 01:37:00",1593114,6.073,198.3,5.739,1.107,7.799,101.251,2.491,3.778,53.3,0,109.6,13.58,3.25,160.3
"2010-01-15 01:37:30",1593115,6.435,199.1,5.706,1.066,7.88,101.2493,2.487,3.728,53.22,0,109.7,13.58,3.25,161.1
"2010-01-15 01:38:00",1593116,5.638,195.3,6.241,1.177,5.736,101.2465,2.48,3.701,53.76,0,109.6,13.58,3.24,157.3
"2010-01-15 01:38:30",1593117,5.776,195.4,6.157,1.229,5.766,101.247,2.481,3.679,54.24,0,109.7,13.59,3.24,157.4
"2010-01-15 01:39:00",1593118,6.127,197.5,6.028,1.161,7.048,101.2453,2.477,3.756,54.39,0,109.7,13.58,3.24,159.5
"2010-01-15 01:39:30",1593119,5.891,196.5,6.354,1.181,6.292,101.2445,2.475,3.677,54.27,0,109.7,13.59,3.24,158.5
"2010-01-15 01:40:00",1593120,5.956,198.1,6.095,1.222,6.721,101.245,2.476,3.705,54.26,0,109.7,13.59,3.24,160.1
"2010-01-15 01:40:30",1593121,6.436,200,5.635,1.051,7.493,101.2439,2.473,3.75,54.28,0,109.7,13.59,3.23,162.0
"2010-01-15 01:41:00",1593122,5.549,195.8,6.273,1.211,6.526,101.2445,2.475,3.699,54.23,0,109.7,13.59,3.24,157.8
"2010-01-15 01:41:30",1593123,5.958,199.9,5.806,1.217,6.913,101.2465,2.48,3.787,54.16,0,109.7,13.59,3.24,161.9
"2010-01-15 01:42:00",1593124,5.619,197.5,6.28,1.217,5.901,101.2448,2.475,3.617,54.15,0,109.7,13.59,3.24,159.5
"2010-01-15 01:42:30",1593125,4.846,195.9,5.138,0.93,5.063,101.245,2.476,3.655,54.35,0,109.7,13.59,3.24,157.9
"2010-01-15 01:43:00",1593126,5.958,203.6,5.576,1.171,7.396,101.2473,2.482,3.753,54.72,0,109.7,13.59,3.24,165.6
"2010-01-15 01:43:30",1593127,5.886,203.9,5.526,1.139,7.291,101.2467,2.48,3.727,54.91,0,109.7,13.59,3.24,165.9
"2010-01-15 01:44:00",1593128,5.67,203.8,5.954,1.158,7.28,101.2462,2.479,3.808,55.18,0,109.6,13.59,3.24,165.8
"2010-01-15 01:44:30",1593129,5.496,202.9,6.319,1.199,6.521,101.2473,2.482,3.701,55.19,0,109.6,13.59,3.24,164.9
"2010-01-15 01:45:00",1593130,4.488,197.9,5.266,0.983,4.692,101.2445,2.475,3.638,55.29,0,109.7,13.59,3.24,159.9
"2010-01-15 01:45:30",1593131,4.925,199.7,6.157,1.196,5.639,101.2445,2.475,3.565,55.29,0,109.7,13.59,3.24,161.7
"2010-01-15 01:46:00",1593132,5.806,203.8,5.62,0.994,7.301,101.245,2.476,3.684,55.45,0,109.7,13.59,3.24,165.8
"2010-01-15 01:46:30",1593133,5.551,204.8,5.645,1.131,7.787,101.2445,2.475,3.772,55.65,0,109.7,13.59,3.24,166.8
"2010-01-15 01:47:00",1593134,6.033,207.3,3.348,0.849,8.09,101.2473,2.482,3.705,55.65,0,109.7,13.58,3.24,169.3
"2010-01-15 01:47:30",1593135,5.162,202.6,6.134,1.236,6.375,101.2473,2.482,3.722,55.69,0,109.7,13.58,3.24,164.6